Time,TemperatureF,DewpointF,PressureIn,WindDirection,WindDirectionDegrees,WindSpeedMPH,WindSpeedGustMPH,Humidity,HourlyPrecipIn,Conditions,Clouds,dailyrainin,SoftwareType,DateUTC
2013-08-31 17:04:00,80.4,65.7,29.65,East,90,1.3,1.3,61,0.00,,,0.00,WUHU216HW,2013-08-31 22:04:00,
2013-08-31 17:05:00,80.4,65.7,29.65,East,90,1.3,1.3,61,0.00,,,0.00,WUHU216HW,2013-08-31 22:05:00,
2013-08-31 17:06:00,80.4,65.7,29.65,East,90,0.0,1.3,61,0.00,,,0.00,WUHU216HW,2013-08-31 22:06:00,
2013-08-31 17:11:00,80.7,66.0,29.64,ENE,68,0.0,1.3,61,0.00,,,0.00,WUHU216HW,2013-08-31 22:11:00,
2013-08-31 17:16:00,80.7,66.0,29.65,ENE,68,3.1,6.7,61,0.00,,,0.00,WUHU216HW,2013-08-31 22:16:00,
2013-08-31 17:21:00,80.7,66.0,29.64,East,90,2.6,6.7,61,0.00,,,0.00,WUHU216HW,2013-08-31 22:21:00,
2013-08-31 17:26:00,80.4,65.7,29.64,East,90,6.4,8.2,61,0.00,,,0.00,WUHU216HW,2013-08-31 22:26:00,
2013-08-31 17:31:00,80.2,65.5,29.64,East,90,0.0,8.2,61,0.00,,,0.00,WUHU216HW,2013-08-31 22:31:00,
2013-08-31 17:36:00,79.8,65.7,29.64,ENE,68,0.0,1.5,62,0.00,,,0.00,WUHU216HW,2013-08-31 22:36:00,
2013-08-31 17:41:00,79.5,65.3,29.64,East,90,3.3,4.2,62,0.00,,,0.00,WUHU216HW,2013-08-31 22:41:00,
2013-08-31 17:46:00,79.1,65.0,29.64,East,90,0.0,4.2,62,0.00,,,0.00,WUHU216HW,2013-08-31 22:46:00,
2013-08-31 17:51:00,78.9,65.3,29.64,East,90,0.0,0.0,63,0.00,,,0.00,WUHU216HW,2013-08-31 22:51:00,
2013-08-31 17:56:00,78.6,64.9,29.64,East,90,0.0,0.0,63,0.00,,,0.00,WUHU216HW,2013-08-31 22:56:00,
2013-08-31 18:01:00,78.4,65.2,29.63,East,90,0.0,0.0,64,0.00,,,0.00,WUHU216HW,2013-08-31 23:01:00,
2013-08-31 18:06:00,78.0,64.8,29.63,East,90,0.0,0.0,64,0.00,,,0.00,WUHU216HW,2013-08-31 23:06:00,
2013-08-31 18:11:00,77.9,64.7,29.63,East,90,0.0,0.0,64,0.00,,,0.00,WUHU216HW,2013-08-31 23:11:00,
2013-08-31 18:17:00,77.7,64.9,29.63,East,90,0.0,0.0,65,0.00,,,0.00,WUHU216HW,2013-08-31 23:17:00,
2013-08-31 18:22:00,77.3,64.6,29.63,East,90,0.0,0.0,65,0.00,,,0.00,WUHU216HW,2013-08-31 23:22:00,
2013-08-31 18:27:00,76.8,64.5,29.63,East,90,0.0,0.0,65,0.00,,,0.00,WUHU216HW,2013-08-31 23:27:00,
2013-08-31 18:32:00,76.6,64.4,29.63,East,90,0.0,0.0,66,0.00,,,0.00,WUHU216HW,2013-08-31 23:32:00,
2013-08-31 18:37:00,76.1,64.3,29.63,East,90,0.0,0.0,67,0.00,,,0.00,WUHU216HW,2013-08-31 23:37:00,
2013-08-31 18:42:00,75.7,63.9,29.62,East,90,0.0,0.0,67,0.00,,,0.00,WUHU216HW,2013-08-31 23:42:00,
2013-08-31 18:47:00,75.0,63.4,29.62,East,90,0.0,0.0,67,0.00,,,0.00,WUHU216HW,2013-08-31 23:47:00,
2013-08-31 18:52:00,74.4,63.2,29.62,East,90,0.0,0.0,68,0.00,,,0.00,WUHU216HW,2013-08-31 23:52:00,
2013-08-31 18:57:00,74.1,63.3,29.62,East,90,0.0,0.0,69,0.00,,,0.00,WUHU216HW,2013-08-31 23:57:00,
2013-08-31 19:02:00,73.5,63.3,29.62,East,90,0.0,0.0,70,0.00,,,0.00,WUHU216HW,2013-09-01 00:02:00,
2013-08-31 19:08:00,73.2,62.9,29.62,East,90,0.0,0.0,70,0.00,,,0.00,WUHU216HW,2013-09-01 00:08:00,
2013-08-31 19:13:00,72.8,62.7,29.62,East,90,0.0,0.0,71,0.00,,,0.00,WUHU216HW,2013-09-01 00:13:00,
2013-08-31 19:18:00,72.3,62.4,29.62,East,90,0.0,0.0,71,0.00,,,0.00,WUHU216HW,2013-09-01 00:18:00,
2013-08-31 19:23:00,71.7,62.4,29.62,East,90,0.0,0.0,72,0.00,,,0.00,WUHU216HW,2013-09-01 00:23:00,
2013-08-31 19:28:00,71.4,61.9,29.62,East,90,0.0,0.0,72,0.00,,,0.00,WUHU216HW,2013-09-01 00:28:00,
2013-08-31 19:33:00,71.2,62.1,29.62,East,90,0.0,0.0,73,0.00,,,0.00,WUHU216HW,2013-09-01 00:33:00,
2013-08-31 19:38:00,70.7,61.9,29.62,East,90,0.0,0.0,74,0.00,,,0.00,WUHU216HW,2013-09-01 00:38:00,
2013-08-31 19:43:00,70.3,61.9,29.63,East,90,0.0,0.0,75,0.00,,,0.00,WUHU216HW,2013-09-01 00:43:00,
2013-08-31 19:48:00,69.8,61.4,29.63,ENE,68,0.0,0.0,75,0.00,,,0.00,WUHU216HW,2013-09-01 00:48:00,
2013-08-31 19:53:00,69.6,61.6,29.64,ENE,68,0.0,0.0,76,0.00,,,0.00,WUHU216HW,2013-09-01 00:53:00,
2013-08-31 19:58:00,69.4,61.8,29.64,ENE,68,0.0,0.0,77,0.00,,,0.00,WUHU216HW,2013-09-01 00:58:00,
2013-08-31 20:03:00,69.0,62.2,29.64,ENE,68,0.0,0.0,79,0.00,,,0.00,WUHU216HW,2013-09-01 01:03:00,
2013-08-31 20:08:00,68.9,62.1,29.65,North,0,0.0,0.0,79,0.00,,,0.00,WUHU216HW,2013-09-01 01:08:00,
2013-08-31 20:13:00,68.7,61.9,29.65,NE,45,0.0,0.0,79,0.00,,,0.00,WUHU216HW,2013-09-01 01:13:00,
2013-08-31 20:19:00,68.5,61.8,29.66,NE,45,0.0,0.0,79,0.00,,,0.00,WUHU216HW,2013-09-01 01:19:00,
2013-08-31 20:24:00,68.3,62.0,29.66,NE,45,0.0,0.0,80,0.00,,,0.00,WUHU216HW,2013-09-01 01:24:00,
2013-08-31 20:29:00,68.1,61.8,29.66,NE,45,0.0,0.0,80,0.00,,,0.00,WUHU216HW,2013-09-01 01:29:00,
2013-08-31 20:31:00,68.1,61.8,29.66,NE,45,0.0,0.0,80,0.00,,,0.00,WUHU216HW,2013-09-01 01:31:00,